Wind_Speed
36 36 35 35 37 38 36 32 31 29 28 26 25 24 23 22 21 20 19 16 15 14 14 13 12 11 10 10 9 9 8 8 7 7 6 6 5 5 4 4 4 4 4 4 4 5 5 6 6
39 39 39 39 40 40 37 34 32 31 30 28 27 26 25 24 22 22 20 17 16 16 15 15 14 13 12 11 10 10 10 9 9 8 7 7 7 6 5 5 5 5 5 5 6 6 7 7 7
42 42 42 43 43 41 36 34 33 32 32 31 29 28 27 25 24 22 21 19 18 18 17 16 15 14 13 12 11 11 11 11 10 9 9 8 8 7 7 6 7 7 7 7 7 8 8 8 8
45 45 46 46 45 41 37 35 35 34 34 33 31 30 29 28 25 24 22 21 20 19 18 18 17 16 15 14 13 12 12 12 11 11 10 10 9 8 8 8 8 8 8 8 9 10 9 9 9
47 47 48 48 46 42 39 37 37 36 36 35 34 33 31 29 27 26 25 23 22 21 20 19 18 17 16 15 14 13 13 13 13 12 12 11 11 10 10 10 9 9 9 10 10 11 10 11 11
49 50 50 49 47 44 42 39 39 38 38 37 36 35 33 32 30 29 28 26 24 23 22 21 20 19 18 17 16 15 15 14 14 14 14 13 13 12 12 12 11 11 11 11 11 12 12 13 13
50 51 52 50 48 46 43 41 40 40 39 38 37 37 36 34 33 31 30 28 26 25 24 23 22 20 20 19 18 17 17 16 16 16 16 16 15 15 14 14 14 13 13 13 13 13 14 14 15
50 51 52 51 50 47 44 44 43 42 41 40 39 38 37 35 34 33 32 30 28 27 26 25 24 22 22 21 20 19 19 18 18 17 17 17 16 16 16 16 16 16 16 16 15 15 16 16 17
49 50 51 50 49 46 45 45 45 44 42 41 41 40 38 37 36 35 34 33 31 29 28 27 26 25 24 23 22 21 21 20 20 19 18 18 18 18 18 18 18 18 18 17 17 17 18 18 19
49 50 48 47 47 46 46 47 47 46 44 43 42 41 40 38 37 36 35 34 33 32 31 29 28 27 26 24 24 23 23 22 22 21 20 20 20 20 20 20 20 20 20 19 19 20 20 20 21
48 49 47 47 47 47 48 48 49 48 46 44 43 41 41 39 39 38 37 36 34 34 33 31 30 29 28 26 26 25 25 24 23 23 22 22 22 22 22 22 22 22 21 21 21 22 22 22 23
47 46 46 46 47 48 48 49 50 50 47 45 45 44 43 42 41 40 38 37 36 35 34 33 32 31 29 28 27 27 26 26 25 25 24 24 23 23 23 24 24 24 24 24 24 24 24 24 25
45 45 45 45 47 49 49 50 51 50 48 47 46 46 45 44 43 41 40 39 38 36 35 34 33 32 31 30 29 29 28 28 27 27 27 26 26 25 25 26 26 26 26 26 26 27 27 27 27
42 44 45 45 45 48 50 50 52 51 49 49 47 46 46 45 44 43 41 40 39 38 37 35 34 33 33 32 31 31 30 30 29 29 28 28 28 28 28 28 28 28 28 28 28 28 28 28 29
41 43 44 45 45 47 50 50 50 49 49 49 48 47 46 46 45 44 43 41 40 39 39 37 35 35 34 34 33 32 32 31 31 31 31 30 30 30 30 30 30 30 30 30 30 30 30 30 30
40 41 43 44 43 44 48 49 48 48 49 49 49 48 48 47 46 45 44 42 41 40 39 38 36 35 35 35 34 34 33 33 32 32 32 32 32 31 31 31 32 32 32 32 32 31 31 32 32
40 40 41 41 41 42 46 47 46 47 48 49 48 49 49 48 47 46 44 44 43 41 40 39 38 37 36 36 35 35 35 35 35 34 34 34 33 33 33 34 34 34 35 34 34 34 34 34 34
38 38 38 39 39 41 43 44 43 46 47 48 48 48 49 48 48 47 46 45 44 43 42 41 40 39 38 37 36 36 37 36 36 37 36 36 36 36 36 36 37 36 37 37 36 36 36 36 35
33 35 35 34 36 38 41 42 42 44 47 47 47 47 48 48 47 47 46 46 45 44 44 43 41 41 40 39 39 39 38 38 38 39 38 39 39 39 39 38 38 38 38 38 38 38 37 37 37
30 32 33 33 33 34 36 39 41 43 44 45 46 48 48 47 47 47 47 46 45 45 44 44 43 42 42 41 40 40 39 39 39 40 41 41 41 41 40 41 41 41 40 40 39 39 39 38 38
27 28 30 31 31 33 34 35 38 41 44 44 44 46 47 47 47 48 48 47 47 46 45 44 44 43 43 42 42 42 42 41 41 41 41 41 42 42 42 41 42 42 42 41 41 41 40 40 40
24 25 27 28 29 31 33 34 36 38 41 42 42 43 45 46 47 48 49 48 47 46 46 45 45 45 44 44 44 44 43 42 42 42 42 42 42 42 42 42 43 43 42 42 42 42 41 40 40
22 23 24 25 26 27 28 31 34 37 39 41 42 43 44 45 46 46 47 47 47 46 47 46 46 46 46 46 46 45 44 44 43 42 41 41 41 42 42 42 43 43 42 42 41 42 41 41 41
20 21 22 23 24 26 24 27 29 32 36 39 40 41 42 43 45 46 46 47 47 47 47 47 46 46 47 47 47 46 46 46 45 43 43 42 42 42 41 41 41 42 42 42 42 42 42 42 41
20 20 20 21 23 25 25 27 26 27 30 34 37 39 40 41 45 46 47 47 47 48 48 48 48 47 47 47 47 47 47 46 45 45 44 44 44 43 43 42 42 43 43 42 42 42 42 43 43
18 20 22 24 25 24 25 27 26 27 29 32 34 37 38 40 42 44 46 47 47 47 48 48 48 48 48 47 47 46 46 46 46 46 45 44 44 43 43 43 43 43 43 43 43 44 44 43 44
18 19 20 23 24 26 27 27 26 27 30 33 34 36 37 37 39 42 44 44 46 47 48 47 47 47 48 48 47 46 46 46 46 46 45 45 45 45 44 44 43 43 43 43 44 44 44 44 44
19 20 21 22 23 23 24 26 27 26 29 32 34 35 36 36 38 40 42 43 44 45 46 46 47 47 46 47 48 47 46 46 46 45 44 45 45 45 45 44 43 44 44 44 44 45 44 44 45
18 19 22 23 24 24 26 25 26 27 28 30 32 33 34 35 36 38 40 42 43 43 45 46 46 47 46 46 46 47 47 46 46 45 45 46 46 45 44 44 43 44 44 43 43 43 43 44 45
18 19 21 23 23 24 25 25 26 28 28 29 30 31 33 35 37 38 40 41 42 42 44 45 45 46 46 46 46 45 45 45 44 44 45 45 45 44 44 44 44 44 44 43 42 42 43 44 45
Wind_Direction
242 242 240 239 239 239 238 236 234 233 232 231 230 230 231 233 235 237 234 232 230 230 230 231 229 230 227 228 231 234 236 238 238 238 236 236 237 240 246 253 260 271 283 296 305 312 317 318 317
242 242 241 240 239 239 238 236 235 234 233 231 230 231 232 233 234 236 235 234 231 229 230 232 230 230 232 232 233 236 239 241 243 244 243 245 246 251 258 261 267 279 285 290 295 300 307 309 314
242 241 241 240 240 240 239 237 236 235 234 231 231 231 232 233 234 235 235 235 233 231 232 233 232 231 234 235 235 238 241 242 243 245 247 250 251 254 260 266 273 280 285 288 291 296 301 305 309
242 240 240 239 239 238 239 238 236 235 234 232 230 230 231 233 234 235 235 235 234 232 232 233 233 232 233 235 237 239 243 244 243 246 249 252 255 258 264 268 272 277 281 285 289 293 297 302 305
241 240 239 239 238 237 237 237 236 235 234 232 231 231 231 232 233 234 235 236 235 234 233 233 233 234 235 237 239 241 244 245 243 246 250 254 258 262 267 269 271 274 277 283 286 292 296 300 302
239 239 239 239 238 237 236 236 236 235 234 232 232 232 231 231 232 233 235 236 236 235 235 235 234 234 235 237 239 240 242 244 245 248 251 254 258 262 266 270 272 273 276 280 286 290 294 299 300
238 238 239 239 238 236 235 236 235 234 234 233 233 233 231 232 232 233 235 236 235 235 235 236 235 236 237 238 239 241 243 245 248 250 252 254 258 263 266 269 271 272 276 281 286 290 292 295 298
238 238 237 237 237 235 234 234 235 234 234 233 232 232 231 233 233 233 234 235 234 234 235 236 237 237 239 240 240 242 244 247 249 251 254 256 258 262 266 269 271 273 276 280 284 287 289 292 295
235 236 236 235 236 234 233 233 233 234 233 232 231 232 232 233 233 233 233 234 234 234 235 236 237 239 240 241 241 243 245 247 250 251 254 256 259 263 267 270 272 274 277 280 282 285 288 290 293
232 233 234 234 234 232 231 232 232 232 232 232 232 231 232 232 233 233 232 233 234 235 236 237 238 240 242 242 243 244 246 248 251 251 256 259 261 264 267 270 272 275 277 278 280 283 285 287 290
231 233 232 231 231 230 230 231 232 232 232 232 233 232 231 233 234 233 232 232 234 235 236 237 239 241 243 244 245 246 247 248 251 253 256 260 263 265 267 270 272 274 276 277 280 282 284 286 288
231 231 232 231 231 230 229 230 232 232 232 232 233 233 232 232 232 233 232 232 233 233 235 237 239 241 243 244 246 247 248 249 251 253 256 259 263 266 268 270 272 273 275 277 279 281 283 285 286
231 231 231 232 232 231 229 231 233 233 232 232 232 233 233 232 231 232 233 232 232 233 235 237 240 242 243 244 246 247 249 250 252 255 257 260 262 264 267 270 273 274 275 276 278 281 283 284 285
231 231 231 232 233 232 230 231 232 233 232 232 231 231 232 232 231 232 233 233 233 234 235 237 240 242 243 245 246 247 249 251 252 254 257 259 261 264 266 269 272 274 275 277 279 280 282 283 284
231 231 231 232 233 234 233 231 231 232 232 232 231 230 231 232 232 232 233 233 233 234 235 236 238 241 243 244 245 247 249 252 253 254 257 260 262 264 267 269 271 274 275 277 278 279 281 282 284
230 231 233 234 236 236 235 232 231 231 231 232 232 230 230 231 231 232 232 231 232 234 235 236 237 240 242 244 246 248 250 252 253 255 257 260 263 266 268 269 270 272 274 276 277 278 280 281 283
229 231 233 234 236 238 237 233 232 231 231 231 231 231 232 232 231 230 231 231 232 234 235 237 238 241 243 244 247 249 251 253 254 256 257 260 262 265 267 269 271 272 273 274 275 277 279 281 281
229 232 234 235 236 238 238 236 234 232 231 231 231 231 231 232 231 231 231 231 233 235 236 238 240 241 243 245 248 250 252 254 256 257 259 261 262 264 266 268 269 270 272 273 274 276 279 281 281
232 233 234 235 236 239 238 237 237 234 232 231 231 231 231 231 232 231 232 232 234 236 237 238 240 242 244 247 249 251 253 254 256 257 260 262 264 265 266 267 268 269 271 272 274 275 277 280 281
230 232 234 234 236 237 238 240 238 235 233 232 231 232 232 232 232 231 232 233 234 237 238 239 241 243 246 248 251 252 254 256 256 259 261 262 264 265 267 267 268 269 271 273 274 276 277 278 279
230 234 234 234 235 236 238 238 237 234 234 233 233 233 233 233 232 232 232 234 235 237 238 240 242 244 246 248 251 252 255 257 259 260 262 263 263 265 267 267 269 270 272 274 275 276 277 278 279
231 234 234 235 237 238 239 241 237 235 233 233 232 233 233 233 233 232 233 235 236 237 239 240 243 245 247 249 251 254 256 259 261 261 263 264 265 266 267 267 268 269 271 273 274 275 276 277 279
234 233 235 237 238 240 240 239 238 235 233 233 233 234 234 233 233 234 235 236 237 238 240 242 244 246 248 250 252 254 257 259 260 261 262 263 265 267 267 268 269 270 270 272 273 274 275 278 279
235 232 234 236 238 239 238 239 239 234 235 235 236 237 237 235 234 235 236 237 238 239 240 242 244 246 248 249 251 254 257 258 259 261 262 263 266 268 267 269 269 271 272 273 273 274 276 278 279
235 231 233 235 237 241 240 241 239 237 238 238 238 238 238 238 236 236 237 238 239 240 242 243 244 246 248 249 252 255 256 257 258 261 263 264 266 267 268 271 270 271 273 274 275 276 277 278 279
235 234 237 240 240 244 243 242 242 243 242 240 239 239 239 239 238 237 238 239 241 242 242 242 244 246 249 251 252 255 256 257 259 262 263 264 265 267 269 271 271 271 272 274 275 276 276 278 279
240 237 238 243 247 249 249 246 246 246 244 242 240 240 240 239 240 239 240 240 241 242 243 244 245 247 250 252 253 254 255 257 260 261 263 265 265 266 268 270 272 273 274 275 275 275 276 278 279
246 243 240 241 245 251 255 254 252 250 248 246 245 244 241 240 241 241 240 241 243 244 245 245 246 248 251 253 253 253 254 257 259 261 263 264 265 267 269 271 272 272 274 276 277 277 276 277 279
249 246 244 246 249 257 261 257 254 253 253 251 249 246 242 242 241 240 240 241 243 244 246 247 248 248 251 251 252 254 256 257 260 262 263 264 266 268 270 272 272 273 275 277 278 277 277 278 279
253 249 248 248 253 259 264 261 256 255 256 254 250 247 245 244 243 244 244 243 244 245 247 248 249 250 251 252 253 255 256 259 261 262 264 265 267 269 270 271 272 274 276 276 277 278 278 279 280
Height
5814 5816 5818 5821 5823 5824 5827 5834 5837 5840 5843 5846 5849 5851 5853 5855 5857 5860 5861 5862 5863 5865 5866 5868 5869 5870 5871 5873 5874 5874 5875 5876 5876 5877 5877 5878 5878 5878 5879 5879 5879 5879 5879 5879 5879 5879 5878 5878 5877
5807 5809 5811 5813 5815 5817 5823 5829 5832 5836 5839 5842 5845 5847 5849 5851 5853 5855 5857 5859 5861 5863 5864 5866 5867 5868 5870 5871 5872 5873 5874 5875 5875 5876 5876 5877 5877 5877 5878 5878 5878 5878 5878 5878 5878 5878 5877 5877 5876
5799 5800 5803 5804 5807 5812 5819 5825 5828 5832 5834 5837 5840 5843 5846 5848 5850 5852 5854 5856 5858 5860 5862 5863 5865 5866 5868 5869 5870 5871 5872 5873 5874 5874 5875 5876 5876 5877 5877 5877 5878 5877 5877 5877 5877 5877 5876 5876 5875
5789 5791 5793 5796 5799 5807 5813 5819 5822 5825 5828 5832 5835 5838 5841 5844 5846 5848 5851 5853 5855 5857 5859 5861 5863 5864 5866 5867 5868 5869 5870 5871 5872 5873 5874 5874 5875 5875 5876 5876 5876 5876 5876 5876 5876 5876 5875 5875 5874
5777 5780 5783 5786 5793 5801 5807 5811 5815 5818 5821 5826 5830 5833 5836 5839 5842 5844 5847 5849 5852 5854 5856 5858 5860 5862 5863 5865 5866 5867 5868 5869 5870 5871 5872 5872 5873 5874 5874 5874 5875 5875 5875 5874 5874 5874 5873 5873 5872
5766 5769 5773 5777 5785 5793 5799 5804 5807 5811 5814 5819 5823 5827 5830 5834 5837 5840 5842 5845 5848 5851 5853 5855 5856 5858 5860 5862 5863 5864 5865 5867 5868 5869 5869 5870 5871 5871 5872 5872 5872 5873 5873 5872 5872 5872 5872 5871 5870
5755 5758 5762 5769 5776 5783 5791 5796 5799 5803 5807 5813 5817 5821 5824 5828 5831 5835 5838 5841 5844 5846 5849 5851 5853 5855 5857 5859 5860 5861 5863 5864 5865 5866 5867 5868 5868 5869 5869 5870 5870 5870 5870 5870 5870 5870 5870 5869 5868
5743 5747 5751 5758 5765 5774 5782 5786 5790 5794 5799 5805 5809 5813 5818 5822 5826 5830 5833 5836 5839 5842 5845 5847 5850 5852 5854 5855 5857 5858 5860 5861 5862 5863 5864 5865 5865 5866 5867 5867 5867 5868 5868 5868 5867 5867 5867 5866 5866
5730 5735 5740 5749 5757 5766 5771 5775 5781 5785 5791 5796 5801 5806 5811 5815 5819 5824 5827 5831 5834 5837 5840 5843 5845 5848 5850 5852 5853 5855 5856 5857 5858 5859 5860 5861 5862 5863 5863 5864 5864 5864 5865 5864 5864 5864 5864 5863 5862
5719 5724 5733 5742 5748 5755 5761 5765 5771 5776 5783 5788 5793 5799 5803 5808 5812 5817 5821 5825 5829 5832 5835 5838 5841 5843 5846 5848 5849 5851 5852 5854 5855 5856 5857 5858 5859 5859 5860 5860 5861 5861 5861 5861 5861 5860 5860 5859 5859
5709 5717 5726 5732 5738 5744 5750 5755 5761 5767 5774 5780 5785 5791 5796 5801 5805 5810 5814 5819 5823 5826 5830 5833 5836 5838 5841 5843 5845 5846 5848 5849 5851 5852 5853 5854 5855 5855 5856 5856 5856 5857 5857 5857 5857 5856 5856 5855 5854
5702 5709 5717 5723 5728 5734 5740 5746 5751 5758 5766 5772 5777 5782 5788 5792 5798 5803 5808 5812 5817 5820 5824 5827 5830 5833 5836 5838 5840 5842 5843 5845 5846 5847 5848 5849 5850 5851 5851 5852 5852 5852 5852 5852 5852 5852 5851 5850 5850
5693 5702 5708 5713 5718 5723 5730 5735 5741 5749 5757 5762 5768 5774 5780 5785 5790 5796 5801 5806 5810 5814 5817 5821 5824 5827 5830 5832 5834 5836 5838 5840 5841 5842 5843 5844 5845 5846 5846 5847 5847 5847 5847 5847 5847 5846 5846 5845 5844
5687 5693 5699 5704 5709 5714 5720 5726 5732 5740 5747 5752 5759 5765 5771 5777 5782 5788 5793 5798 5803 5807 5811 5814 5817 5821 5823 5826 5828 5831 5832 5834 5836 5837 5838 5839 5840 5840 5841 5841 5841 5842 5841 5841 5841 5841 5840 5839 5838
5679 5684 5690 5695 5701 5706 5711 5717 5724 5732 5737 5743 5750 5756 5762 5768 5774 5780 5786 5791 5796 5800 5804 5807 5811 5814 5817 5820 5822 5824 5826 5828 5830 5831 5832 5833 5834 5834 5835 5835 5835 5835 5835 5835 5835 5834 5834 5833 5832
5671 5675 5681 5688 5693 5697 5703 5709 5718 5723 5728 5734 5741 5747 5753 5759 5766 5772 5777 5783 5787 5792 5796 5800 5804 5807 5810 5813 5815 5818 5820 5821 5823 5825 5826 5827 5827 5828 5828 5829 5829 5829 5828 5828 5828 5828 5827 5826 5826
5662 5668 5674 5681 5685 5689 5693 5701 5709 5714 5719 5726 5732 5739 5744 5751 5757 5763 5769 5774 5779 5784 5788 5793 5796 5800 5803 5806 5808 5811 5813 5814 5816 5817 5819 5820 5820 5820 5821 5821 5822 5821 5821 5821 5821 5821 5820 5819 5819
5657 5662 5668 5673 5678 5682 5686 5693 5700 5705 5710 5717 5724 5730 5736 5742 5749 5755 5760 5766 5771 5775 5780 5785 5789 5792 5795 5798 5801 5803 5805 5807 5808 5809 5811 5812 5812 5813 5813 5814 5814 5813 5813 5813 5813 5813 5812 5811 5811
5653 5657 5662 5667 5671 5675 5679 5686 5692 5696 5702 5708 5715 5721 5727 5734 5740 5746 5752 5757 5762 5767 5772 5776 5781 5784 5788 5790 5793 5794 5796 5798 5800 5801 5802 5803 5804 5804 5805 5805 5805 5805 5805 5805 5804 5804 5804 5803 5802
5647 5651 5656 5661 5665 5669 5673 5678 5683 5688 5694 5701 5707 5712 5718 5724 5731 5738 5743 5749 5754 5759 5763 5768 5772 5776 5779 5782 5784 5786 5788 5790 5791 5792 5793 5794 5794 5795 5796 5796 5796 5796 5796 5796 5796 5796 5795 5795 5794
5643 5647 5652 5656 5660 5663 5666 5670 5675 5680 5686 5692 5698 5703 5709 5715 5722 5728 5734 5739 5744 5749 5754 5758 5763 5766 5769 5772 5775 5777 5779 5780 5782 5783 5783 5784 5784 5785 5786 5786 5787 5787 5787 5787 5787 5787 5787 5786 5786
5641 5645 5648 5652 5654 5657 5661 5663 5669 5673 5678 5684 5689 5694 5699 5706 5712 5718 5724 5729 5735 5740 5745 5749 5753 5757 5760 5763 5765 5767 5769 5771 5772 5773 5774 5774 5775 5776 5777 5777 5777 5777 5777 5777 5778 5778 5777 5777 5777
5638 5642 5645 5648 5650 5653 5656 5658 5663 5666 5671 5676 5681 5686 5691 5697 5703 5709 5715 5720 5725 5730 5735 5740 5744 5747 5750 5753 5755 5757 5759 5760 5762 5763 5764 5765 5766 5766 5767 5767 5767 5767 5768 5768 5768 5768 5768 5768 5767
5635 5638 5641 5643 5645 5648 5651 5653 5657 5660 5665 5670 5675 5679 5684 5690 5695 5700 5705 5710 5715 5721 5725 5730 5734 5737 5740 5742 5745 5747 5749 5750 5752 5753 5755 5756 5756 5756 5757 5757 5758 5758 5758 5758 5759 5759 5758 5758 5758
5632 5634 5636 5637 5639 5642 5646 5648 5652 5655 5659 5663 5668 5672 5676 5681 5685 5690 5696 5700 5705 5711 5715 5720 5724 5727 5729 5731 5734 5737 5739 5740 5742 5743 5745 5746 5747 5747 5747 5747 5748 5748 5749 5749 5749 5749 5749 5748 5748
5628 5630 5632 5633 5635 5638 5641 5643 5648 5650 5653 5657 5660 5664 5668 5672 5676 5681 5686 5691 5695 5700 5705 5709 5713 5717 5719 5721 5724 5727 5729 5730 5732 5733 5735 5736 5737 5737 5737 5737 5738 5738 5739 5739 5739 5739 5739 5739 5738
5625 5627 5629 5631 5632 5633 5635 5638 5642 5644 5647 5650 5653 5656 5660 5664 5668 5672 5677 5682 5686 5690 5695 5699 5703 5706 5709 5711 5713 5717 5719 5720 5722 5723 5724 5725 5727 5727 5728 5728 5729 5729 5729 5729 5729 5729 5729 5728 5727
5623 5624 5625 5626 5627 5628 5631 5633 5637 5638 5641 5643 5646 5649 5653 5656 5660 5664 5668 5673 5677 5681 5685 5689 5692 5696 5698 5701 5703 5706 5708 5710 5712 5713 5714 5715 5716 5717 5718 5718 5719 5719 5719 5718 5718 5718 5718 5717 5717
5619 5621 5621 5622 5624 5625 5626 5631 5631 5633 5634 5636 5639 5642 5646 5649 5653 5656 5660 5663 5667 5670 5674 5678 5682 5685 5688 5690 5692 5695 5697 5699 5701 5703 5704 5705 5705 5706 5707 5708 5708 5708 5708 5708 5708 5708 5707 5707 5706
5615 5617 5618 5619 5621 5621 5621 5627 5626 5628 5629 5630 5633 5636 5639 5642 5645 5648 5651 5654 5657 5661 5665 5668 5671 5674 5677 5680 5682 5685 5687 5689 5691 5692 5693 5694 5695 5696 5697 5697 5698 5698 5698 5698 5697 5697 5697 5696 5695